Location: *
(31.2983°S, 151.4094°E)
Time: 01:34:27
(UTC+00:00)

ALOS - Pass Details

Date: 25 August 2019
Orbit: 683 x 686 km, 97.8° (Epoch: 23 October)

Event Time Altitude Azimuth Distance (km) Brightness Sun altitude
Rises 18:16:52 0° 31° (NNE) 3,039 6.0 -26.7°
Reaches altitude 10° 18:19:12 10° 38° (NE) 2,131 5.2 -26.2°
Maximum altitude 18:23:32 39° 107° (ESE) 1,030 3.6 -25.3°
Drops below altitude 10° 18:27:55 10° 175° (S) 2,155 4.9 -24.4°
Sets 18:30:17 0° 182° (S) 3,078 5.6 -23.9°
